This is the latest recevied weather packets stored in our database for station/object KC0AFB. If no packets are shown the sender has not sent any weather packets the latest 10 day(s).
| Time | Temp. | Humidity | Pressure | Rain* | Wind** | Luminosity | Snow |
|---|---|---|---|---|---|---|---|
| 1777670915 | 15.56° C | 39% | 1019.1 hPa | 0 mm | - | 184 W/m² | - |
| 1777670612 | 15.56° C | 40% | 1019.3 hPa | 0 mm | - | 209 W/m² | - |
| 1777670308 | 15.56° C | 38% | 1019.3 hPa | 0 mm | - | 215 W/m² | - |
| 1777670006 | 16.11° C | 37% | 1019 hPa | 0 mm | - | 634 W/m² | - |
| 1777669697 | 15.56° C | 42% | 1019.1 hPa | 0 mm | - | 638 W/m² | - |
| 1777669395 | 14.44° C | 41% | 1019.2 hPa | 0 mm | - | 638 W/m² | - |
| 1777669090 | 14.44° C | 42% | 1019.4 hPa | 0 mm | - | 115 W/m² | - |
| 1777668788 | 15° C | 41% | 1019.7 hPa | 0 mm | - | 137 W/m² | - |
| 1777668484 | 15.56° C | 39% | 1019.7 hPa | 0 mm | - | 167 W/m² | - |
| 1777668181 | 16.11° C | 43% | 1019.7 hPa | 0 mm | - | 641 W/m² | - |
| 1777667877 | 15.56° C | 42% | 1019.6 hPa | 0 mm | - | 549 W/m² | - |
| 1777667575 | 15.56° C | 41% | 1019.5 hPa | 0 mm | - | 685 W/m² | - |
| 1777667272 | 15° C | 41% | 1019.7 hPa | 0 mm | - | 674 W/m² | - |
| 1777666968 | 15° C | 42% | 1019.5 hPa | 0 mm | - | 237 W/m² | - |
| 1777666665 | 15.56° C | 38% | 1019.6 hPa | 0 mm | - | 243 W/m² | - |
| 1777666362 | 15° C | 39% | 1019.7 hPa | 0 mm | - | 345 W/m² | - |
| 1777666059 | 15° C | 42% | 1019.7 hPa | 0 mm | - | 767 W/m² | - |
| 1777665756 | 15.56° C | 40% | 1019.7 hPa | 0 mm | - | 740 W/m² | - |
| 1777665453 | 15° C | 43% | 1019.9 hPa | 0 mm | - | 861 W/m² | - |
| 1777665149 | 15.56° C | 42% | 1019.8 hPa | 0 mm | - | 296 W/m² | - |
| 1777664845 | 14.44° C | 41% | 1019.6 hPa | 0 mm | - | 253 W/m² | - |
| 1777664541 | 15.56° C | 42% | 1019.7 hPa | 0 mm | - | 248 W/m² | - |
| 1777664238 | 15.56° C | 39% | 1019.8 hPa | 0 mm | - | 769 W/m² | - |
| 1777663936 | 15° C | 42% | 1019.8 hPa | 0 mm | - | 202 W/m² | - |
| 1777663633 | 15° C | 42% | 1019.7 hPa | 0 mm | - | 731 W/m² | - |
* Rain latest hour (hover to see other rain measurements)
** Current wind speed in m/s (hover to see current wind gust speed)